Regional Weather Roundup
Issued by NWS

Home | Current Version | Previous Version | Text Only | Print | Product List | Glossary On
Versions: 1 2 3 4 5 6 7 8 9 10 11 12 13 14 15 16 17 18 19 20 21 22 23 24 25 26 27 28 29 30 31 32 33 34 35 36 37 38 39 40 41 42 43 44 45 46 47 48 49 50
000
ASUS43 KDTX 030110
RWRMI
MICHIGAN HOURLY REGIONAL WEATHER ROUNDUP
NATIONAL WEATHER SERVICE DETROIT/PONTIAC MI
800 PM EST MON MAR 02 2015

NOTE: "FAIR" INDICATES FEW OR NO CLOUDS BELOW 12,000 FEET WITH NO
SIGNIFICANT WEATHER AND/OR OBSTRUCTION TO VISIBILITY.

MIZ047>049-052>055-059>063-066>070-074>076-081>083-030200-
SOUTHEAST LOWER MICHIGAN

CITY           SKY/WX    TMP DP  RH WIND       PRES   REMARKS
ADRIAN         PTCLDY    20  11  68 S6        30.41F
ALMA           PTCLDY    19  10  66 SW3       30.37S
ANN ARBOR      PTCLDY    19  10  68 CALM      30.40S
BAD AXE        CLEAR     12   7  80 S3        30.38F
DETROIT CITY   CLEAR     29  10  45 NW3       30.41F
DETROIT        MOCLDY    25  11  55 SE6       30.41F
FLINT          CLEAR     22  11  62 S6        30.38F
GROSSE ILE     PTCLDY    21  12  68 CALM      30.40F
HILLSDALE      PTCLDY    21  12  67 CALM      30.37S
HOWELL         PTCLDY    23  12  63 CALM      30.37F

CITY           SKY/WX    TMP DP  RH WIND       PRES   REMARKS
JACKSON        PTCLDY    24  12  60 SW5       30.37F
LAMBERTVILLE   MOCLDY    21  14  73 CALM      30.42F
LANSING        PTCLDY    24  12  60 SW6       30.38F
LAPEER         NOT AVBL
MASON          PTCLDY    22  12  65 CALM      30.37F
MONROE         PTCLDY    19  12  73 CALM      30.40F
MT. CLEMENS    PTCLDY    19   9  64 E3        30.39S
PONTIAC        PTCLDY    21  10  62 CALM      30.36F
PORT HOPE        N/A     21   8  57 SW5       30.36F
PORT HURON     CLEAR     18   9  68 CALM      30.42S
TRI CITIES     CLEAR     21   8  57 S5        30.38F
YPSILANTI      PTCLDY    28  12  51 VRB6      30.40F
$$
MIZ043>046-050>051-056>058-064>065-071>073-077>080-030200-
SOUTHWEST LOWER MICHIGAN

CITY           SKY/WX    TMP DP  RH WIND       PRES   REMARKS
BATTLE CREEK   MOCLDY    23  12  62 SW3       30.37F
BENTON HARBOR  MOCLDY    20  15  81 E3        30.38F
BIG RAPIDS     PTCLDY    22   9  57 CALM      30.33F
COLDWATER      MOCLDY    22  13  67 CALM      30.37F
HOLLAND        MOCLDY    23  14  68 CALM      30.39F
GRAND RAPIDS   CLOUDY    23  12  62 SW5       30.37F
KALAMAZOO      MOCLDY   N/A N/A N/A MISG      30.38F
MARSHALL       MOCLDY    21  12  68 S8        30.36F
MUSKEGON       MOCLDY    23  13  65 S3        30.38F
$$
MIZ016>042-030200-
NORTHERN LOWER MICHIGAN

CITY           SKY/WX    TMP DP  RH WIND       PRES   REMARKS
ALPENA         CLEAR     16   2  54 CALM      30.36F
BEAVER ISLAND  CLEAR     18   8  63 CALM      30.33F
BELLAIRE       CLEAR     11   5  77 CALM      30.37F
CADILLAC       CLEAR     10   1  67 CALM      30.30S
CHARLEVOIX     CLEAR     10   4  77 CALM      30.38F
FRANKFORT      CLEAR     13   9  81 CALM      30.35F
GAYLORD        CLEAR     11   0  61 CALM      30.30F
GRAYLING       CLEAR      8  -1  65 CALM      30.33S
HARBOR SPRINGS CLEAR     11   4  73 CALM      30.34F
HOUGHTON LAKE  CLEAR     15   2  56 CALM      30.32F
MANISTEE       CLEAR     16   7  67 CALM      30.36F
OSCODA         CLEAR     15   1  55 CALM      30.36S
PELLSTON       CLEAR     13   3  64 CALM      30.36S
TRAVERSE CITY  PTCLDY    14   6  70 CALM      30.35F
$$
MIZ007>008-015-030200-
EASTERN UPPER MICHIGAN

CITY           SKY/WX    TMP DP  RH WIND       PRES   REMARKS
KINROSS        CLEAR      9   5  85 CALM      30.33F
MACKINAC ISLAN CLEAR     18   7  62 SW8       30.34S
NEWBERRY       CLEAR     14   7  73 S6        30.30F
S. S. MARIE    CLEAR     10   3  73 S5        30.33S
$$
MIZ004>006-011>014-085-030200-
CENTRAL UPPER MICHIGAN

CITY           SKY/WX    TMP DP  RH WIND       PRES   REMARKS
MANISTIQUE     CLEAR     22  15  75 S8        30.30F
ESCANABA       CLEAR     19  10  68 S8        30.30F
MENOMINEE      CLEAR     21   9  58 SW8       30.30F
SAWYER-GWINN   CLEAR     19   7  58 S5        30.22F
$$
MIZ001>003-009>011-084-030200-
WESTERN UPPER MICHIGAN

CITY           SKY/WX    TMP DP  RH WIND       PRES   REMARKS
HOUGHTON       CLEAR     14   5  67 E7        30.18F
COPPER HARBOR    N/A     13   5  70 W3        30.22F
IRONWOOD       CLEAR     23   0  36 S5        30.14F
$$

ABBREVIATIONS USED IN REMARKS
   TC - TEMPERATURE IN CELSIUS
  WCI - WIND CHILL INDEX
   HX - HEAT INDEX
  VSB - VISIBILITY




USA.gov is the U.S. government's official web portal to all federal, state and local government web resources and services.